Location: Albany
(35.0170°S, 117.8920°E)
Time: 23:41:33
(UTC+08:00)

Transit 2A - Pass Details

Date: 30 January 2021
Orbit: 601 x 958 km, 66.7° (Epoch: 06 March)

Event Time Altitude Azimuth Distance (km) Brightness Sun altitude
Rises 23:21:46 0° 205° (SSW) 3,573 10.5 -35.6°
Reaches altitude 10° 23:24:18 10° 202° (SSW) 2,658 9.6 -35.8°
Enters shadow 23:28:43 47° 183° (S) 1,255 7.3 -36.0°
Maximum altitude 23:30:34 69° 118° (ESE) 1,025 - -36.1°
Drops below altitude 10° 23:36:53 10° 35° (NE) 2,681 - -36.4°
Sets 23:39:26 0° 32° (NNE) 3,605 - -36.6°
